Regional Weather Roundup
Issued by NWS

Home | Current Version | Previous Version | Text Only | Print | Product List | Glossary Off
Versions: 1 2 3 4 5 6 7 8 9 10 11 12 13 14 15 16 17 18 19 20 21 22 23 24 25 26 27 28 29 30 31 32 33 34 35 36 37 38 39 40 41 42 43 44 45 46 47 48 49 50

000
ASUS43 KOAX 220810
RWRNE

WEATHER ROUNDUP FOR NEBRASKA
NATIONAL WEATHER SERVICE OMAHA NE
300 AM CDT TUE AUG 22 2017

NOTES: SATELLITE DATA IS BEING USED TO AUGMENT CLOUD COVER ABOVE
       12000 FEET.
       "FAIR" INDICATES FEW OR NO CLOUDS BELOW 12,000 FEET WITH NO
       SIGNIFICANT WEATHER AND/OR OBSTRUCTIONS TO VISIBILITY.


NEZ001>004-019>022-054>056-220900-
NEBRASKA PANHANDLE

CITY           SKY/WX    TMP DP  RH WIND       PRES   REMARKS
SCOTTSBLUFF    CLEAR     56  46  69 E6        30.26R
ALLIANCE       CLEAR     45  42  89 CALM      30.25R
CHADRON        CLEAR     50  44  80 SW3       30.23S
GORDON         FAIR      46  43  88 NW5       30.24R
KIMBALL        CLEAR     55  48  76 E6        30.29R
SIDNEY         CLEAR     57  50  77 NE8       30.27S
$$

NEZ057>060-069>072-079>082-220900-
SOUTHWEST NEBRASKA

CITY           SKY/WX    TMP DP  RH WIND       PRES   REMARKS
NORTH PLATTE   FOG       58  57  97 NW7       30.18R VSB 3/4
IMPERIAL       CLEAR     61  59  93 N6        30.21R
LEXINGTON      CLEAR     64  62  94 N5        30.14R
MCCOOK         CLEAR     65  64  97 N7        30.14R
OGALLALA       PTCLDY    64  60  88 NE7       30.22R
$$

NEZ005>010-023>029-035>040-094-220900-
NORTH CENTRAL NEBRASKA

CITY           SKY/WX    TMP DP  RH WIND       PRES   REMARKS
VALENTINE      CLEAR     57  47  69 CALM      30.18S
AINSWORTH      CLEAR     55  51  86 N6        30.18R
BROKEN BOW     PTCLDY    63  61  93 N8        30.14R
O`NEILL        CLEAR     58  56  96 N6        30.14R
ORD            CLEAR     62  59  90 NW8       30.11R
THEDFORD       CLEAR     58  51  78 N6        30.20R
$$

NEZ041-046>049-061>064-073>077-083>087-220900-
SOUTH CENTRAL NEBRASKA

CITY           SKY/WX    TMP DP  RH WIND       PRES   REMARKS
GRAND ISLAND   CLEAR     63  63 100 NW7       30.08S
AURORA         CLEAR     63  63 100 N7        30.07S
HASTINGS       PTCLDY    65  62  90 N8        30.08S
HEBRON         CLOUDY    68  65  90 NE5       30.03S
HOLDREGE       CLEAR     63  62  95 N7        30.10S
KEARNEY        CLEAR     64  62  93 N8        30.11R
YORK           CLEAR     64  64 100 N3        30.06S
$$

NEZ011>018-030>034-042>045-220900-
NORTHEAST NEBRASKA

CITY           SKY/WX    TMP DP  RH WIND       PRES   REMARKS
NORFOLK        CLEAR     60  60 100 W6        30.06R
ALBION         CLEAR     63  62  97 N7        30.09R
BLAIR          LGT RAIN  64  64  98 W3        30.03S VSB 1/4
COLUMBUS       CLEAR     62  61  96 NW6       30.06S
FREMONT        PTCLDY    63  63  99 NW5       30.04R
TEKAMAH        CLEAR     62  60  93 NW6       30.01S
WAYNE          CLEAR     61  58  91 NW6       30.05R
$$

NEZ050>053-065>068-078-088>093-220900-
SOUTHEAST NEBRASKA

CITY           SKY/WX    TMP DP  RH WIND       PRES   REMARKS
LINCOLN        PTCLDY    66  64  93 N8        30.04S
OMAHA EPPLEY   CLOUDY    67  63  87 W5        30.02R
BEATRICE       CLOUDY    67  66  97 N5        30.02R
FALLS CITY     CLOUDY    66  64  93 CALM      29.99R
NEBRASKA CITY  CLOUDY    65  65 100 CALM      30.01R
PLATTSMOUTH    CLOUDY    64  64  97 NW3       30.02S FOG
$$

NEZ044-045-051>053-067-220900-
OMAHA AREA

CITY           SKY/WX    TMP DP  RH WIND       PRES   REMARKS
OMAHA EPPLEY   CLOUDY    67  63  87 W5        30.02R
BLAIR          LGT RAIN  64  64  98 W3        30.03S VSB 1/4
FREMONT        PTCLDY    63  63  99 NW5       30.04R
MILLARD        CLOUDY    66  65  96 NW3       30.02S
OFFUTT AFB     PTCLDY    64  63  95 NW5       30.01R
PLATTSMOUTH    CLOUDY    64  64  97 NW3       30.02S FOG
WAHOO          FAIR      63  63  97 NW5       30.04R FOG
$$




USA.gov is the U.S. government's official web portal to all federal, state and local government web resources and services.